Scappoose, OR

3:15 PM PDT on May 24, 2017 (GMT -0700)
Scappoose Industrial

Weather History for KSPB - July, 2013

Change the Weather History Date:

Wednesday, July 17, 2013

  Actual Average Record
Temperature  
Mean Temperature 67 °F -  
Max Temperature 76 °F - 89 °F (2005)
Min Temperature 57 °F - 48 °F (1999)
Degree Days  
Heating Degree Days 0    
Month to date heating degree days 14  
Since 1 June heating degree days 116  
Since 1 July heating degree days 14  
Cooling Degree Days 2    
Month to date cooling degree days 78  
Year to date cooling degree days 132  
Since 1 June cooling degree days 124  
Growing Degree Days 17 (Base 50)    
Moisture  
Dew Point 54 °F    
Average Humidity 69    
Maximum Humidity 87    
Minimum Humidity 50    
Precipitation  
Precipitation 0.00 in - 0.38 in (2011)
Month to date precipitation T  
Year to date precipitation 13.89  
Sea Level Pressure  
Sea Level Pressure 30.12 in    
Wind  
Wind Speed 4 mph (NNE)    
Max Wind Speed 14 mph    
Max Gust Speed 21 mph    
Visibility 10 miles    
Events      
T = Trace of Precipitation, MM = Missing Value Source: NWS Daily Summary

Daily Weather History Graph

Daily Weather History Graph

Search for Another Location

Airport or City:

Trip Planner

Search our weather history database for the weather conditions in past years. The results will help you decide how hot, cold, wet, or windy it might be!

Date:

Astronomy

Jul. 17, 2013 Rise Set
Actual Time 5:38 AM PDT 8:56 PM PDT
Civil Twilight 5:02 AM PDT 9:32 PM PDT
Nautical Twilight 4:14 AM PDT 10:19 PM PDT
Astronomical Twilight 3:14 AM PDT 11:18 PM PDT
Moon 3:47 PM PDT (7/17) 12:55 AM PDT (7/17)
Length of Visible Light 16h 30m
Length of Day
15h 17m
Waxing Gibbous, 68% of the Moon is Illuminated
Jul 17
Waxing Gibbous
Jul 22
Full
Jul 29
Last Quarter
Aug 6
New
Aug 14
First Quarter

Hourly Weather History & Observations

Time (PDT) Temp. Dew Point Humidity Pressure Visibility Wind Dir Wind Speed Gust Speed Precip Events Conditions
12:53 AM 59.0 °F 54.0 °F 83% 29.99 in 10.0 mi Calm Calm - N/A   Clear
1:53 AM 61.0 °F 54.0 °F 78% 30.01 in 10.0 mi Calm Calm - N/A   Clear
2:49 AM 59.0 °F 53.6 °F 82% 30.03 in 10.0 mi Calm Calm - N/A   Mostly Cloudy
2:53 AM 59.0 °F 55.0 °F 87% 30.04 in 10.0 mi Calm Calm - N/A   Mostly Cloudy
3:53 AM 61.0 °F 54.0 °F 78% 30.05 in 10.0 mi Calm Calm - N/A   Overcast
4:53 AM 60.1 °F 54.0 °F 80% 30.06 in 10.0 mi SSE 4.6 mph - N/A   Overcast
5:53 AM 60.1 °F 53.1 °F 78% 30.08 in 10.0 mi SSE 4.6 mph - N/A   Overcast
6:53 AM 61.0 °F 54.0 °F 78% 30.10 in 10.0 mi SW 4.6 mph - N/A   Overcast
7:53 AM 61.0 °F 54.0 °F 78% 30.12 in 10.0 mi Calm Calm - N/A   Overcast
8:53 AM 62.1 °F 54.0 °F 75% 30.14 in 10.0 mi SSE 4.6 mph - N/A   Overcast
9:53 AM 63.0 °F 54.0 °F 72% 30.15 in 10.0 mi Variable 3.5 mph - N/A   Overcast
10:53 AM 64.0 °F 54.0 °F 70% 30.16 in 10.0 mi Calm Calm - N/A   Overcast
11:41 AM 64.4 °F 55.4 °F 73% 30.16 in 10.0 mi SSE 3.5 mph - N/A   Overcast
11:53 AM 66.0 °F 54.0 °F 65% 30.17 in 10.0 mi SE 3.5 mph - N/A   Overcast
12:53 PM 66.9 °F 54.0 °F 63% 30.17 in 10.0 mi Calm Calm - N/A   Overcast
1:01 PM 66.2 °F 53.6 °F 64% 30.17 in 10.0 mi Calm Calm - N/A   Overcast
1:49 PM 68.0 °F 53.6 °F 60% 30.17 in 10.0 mi Variable 3.5 mph - N/A   Overcast
1:53 PM 68.0 °F 54.0 °F 61% 30.17 in 10.0 mi North 3.5 mph - N/A   Overcast
2:53 PM 71.1 °F 55.0 °F 57% 30.17 in 10.0 mi Calm Calm - N/A   Mostly Cloudy
3:53 PM 73.0 °F 55.0 °F 53% 30.15 in 10.0 mi Variable 4.6 mph - N/A   Clear
4:53 PM 73.9 °F 57.0 °F 55% 30.14 in 10.0 mi East 10.4 mph - N/A   Clear
5:53 PM 75.0 °F 55.9 °F 51% 30.13 in 10.0 mi NNE 9.2 mph - N/A   Clear
6:53 PM 73.0 °F 55.9 °F 55% 30.12 in 10.0 mi North 10.4 mph - N/A   Clear
7:53 PM 71.1 °F 55.0 °F 57% 30.13 in 10.0 mi NNW 8.1 mph - N/A   Clear
8:53 PM 66.9 °F 55.0 °F 66% 30.14 in 10.0 mi NW 5.8 mph - N/A   Clear
9:53 PM 64.0 °F 54.0 °F 70% 30.15 in 10.0 mi NNW 4.6 mph - N/A   Clear
10:53 PM 63.0 °F 53.1 °F 70% 30.17 in 10.0 mi NNW 6.9 mph - N/A   Clear
11:53 PM 61.0 °F 53.1 °F 75% 30.17 in 10.0 mi NW 5.8 mph - N/A   Clear